Terra Bella
DateTemperatureDew Point
05/05 - 10:30 PM54.4°52.0°
05/05 - 10:15 PM54.8°51.5°
05/05 - 10:00 PM56.0°51.7°
05/05 - 09:45 PM57.3°51.8°
05/05 - 09:30 PM58.7°51.7°
05/05 - 09:15 PM59.7°51.9°
05/05 - 09:00 PM60.3°51.8°
05/05 - 08:45 PM61.3°51.6°
05/05 - 08:30 PM62.1°51.8°
05/05 - 08:15 PM62.8°51.5°
05/05 - 08:00 PM63.2°51.4°
05/05 - 07:45 PM63.8°51.4°
05/05 - 07:30 PM64.3°51.0°
05/05 - 07:15 PM64.8°51.0°
05/05 - 07:00 PM65.5°50.7°
05/05 - 06:45 PM66.0°49.5°
05/05 - 06:30 PM66.3°48.9°
05/05 - 06:15 PM66.7°48.4°
05/05 - 06:00 PM67.0°48.2°
05/05 - 05:45 PM67.7°48.8°
05/05 - 05:30 PM68.3°49.2°
05/05 - 05:15 PM69.7°49.4°
05/05 - 05:00 PM70.1°48.5°
05/05 - 04:45 PM72.6°48.1°
05/05 - 04:30 PM72.6°46.9°
05/05 - 04:15 PM71.6°49.4°
05/05 - 04:00 PM70.1°54.0°
05/05 - 03:45 PM67.0°53.5°
05/05 - 03:30 PM67.0°53.9°
05/05 - 03:15 PM70.3°52.2°
05/05 - 03:00 PM69.0°51.3°
05/05 - 02:45 PM68.2°51.0°
05/05 - 02:30 PM69.1°51.8°
05/05 - 02:15 PM69.2°52.4°
05/05 - 02:00 PM70.1°52.9°
05/05 - 01:45 PM70.7°53.2°
05/05 - 01:30 PM69.7°53.2°
05/05 - 01:15 PM68.4°53.2°
05/05 - 01:00 PM68.0°52.9°
05/05 - 12:45 PM67.5°53.5°
05/05 - 12:30 PM65.5°52.9°
05/05 - 12:15 PM65.2°53.7°
05/05 - 12:00 PM64.0°53.7°
05/05 - 11:45 AM64.0°53.7°
05/05 - 11:30 AM63.3°54.1°
05/05 - 11:15 AM62.9°53.8°
05/05 - 11:00 AM62.7°54.5°
05/05 - 10:45 AM61.8°54.8°
05/05 - 10:30 AM60.2°54.7°
05/05 - 10:15 AM59.4°54.7°
05/05 - 10:00 AM58.5°55.2°
05/05 - 09:45 AM57.6°54.5°
05/05 - 09:30 AM57.6°54.6°
05/05 - 09:15 AM57.8°54.6°
05/05 - 09:00 AM57.4°54.7°
05/05 - 08:45 AM56.7°54.6°
05/05 - 08:30 AM56.2°54.5°
05/05 - 08:15 AM55.6°54.1°
05/05 - 08:00 AM55.4°53.9°
05/05 - 07:45 AM55.3°53.8°
05/05 - 07:30 AM55.3°54.0°
05/05 - 07:15 AM55.2°53.8°
05/05 - 07:00 AM55.2°53.6°
05/05 - 06:45 AM55.0°53.6°
05/05 - 06:30 AM54.8°53.6°
05/05 - 06:15 AM54.6°53.5°
05/05 - 06:00 AM54.5°53.5°
05/05 - 05:45 AM54.6°53.4°
05/05 - 05:30 AM54.6°53.3°
05/05 - 05:15 AM54.6°53.2°
05/05 - 05:00 AM54.6°53.0°
05/05 - 04:45 AM54.5°52.7°
05/05 - 04:30 AM54.5°52.5°
05/05 - 04:15 AM54.6°52.6°
05/05 - 04:00 AM54.6°53.0°
05/05 - 03:45 AM54.5°53.4°
05/05 - 03:30 AM54.4°53.6°
05/05 - 03:15 AM54.7°53.8°
05/05 - 03:00 AM55.1°53.9°
05/05 - 02:45 AM55.3°53.8°
05/05 - 02:30 AM55.3°53.4°
05/05 - 02:15 AM55.6°53.3°
05/05 - 02:00 AM55.6°53.2°
05/05 - 01:45 AM55.7°53.1°
05/05 - 01:30 AM55.9°53.0°
05/05 - 01:15 AM56.1°52.8°
05/05 - 01:00 AM56.3°52.7°
05/05 - 12:45 AM56.6°52.5°
05/05 - 12:30 AM56.9°52.2°
05/05 - 12:15 AM57.5°51.8°
05/05 - 12:00 AM57.7°51.0°
05/04 - 11:45 PM57.7°50.6°
05/04 - 11:30 PM58.1°50.5°
05/04 - 11:15 PM58.3°50.3°
05/04 - 11:00 PM58.3°50.0°
05/04 - 10:45 PM58.4°49.9°
05/04 - 10:30 PM58.3°49.8°
05/04 - 10:15 PM58.0°49.7°
05/04 - 10:00 PM57.7°50.5°
05/04 - 09:45 PM57.6°50.9°
05/04 - 09:30 PM58.1°50.8°
05/04 - 09:15 PM57.8°50.5°
05/04 - 09:00 PM56.4°51.4°
05/04 - 08:45 PM55.3°51.9°
05/04 - 08:30 PM55.1°51.7°
05/04 - 08:15 PM55.1°50.4°
05/04 - 08:00 PM55.5°49.2°
05/04 - 07:45 PM56.5°49.5°
05/04 - 07:30 PM58.4°49.5°
05/04 - 07:15 PM60.7°50.0°
05/04 - 07:00 PM62.1°50.5°
05/04 - 06:45 PM63.1°50.1°
05/04 - 06:30 PM63.7°49.0°
05/04 - 06:15 PM64.0°49.0°
05/04 - 06:00 PM64.9°49.2°
05/04 - 05:45 PM64.7°49.4°
05/04 - 05:30 PM65.5°49.7°
05/04 - 05:15 PM64.1°49.5°
05/04 - 05:00 PM63.7°49.2°
05/04 - 04:45 PM63.5°49.4°
05/04 - 04:30 PM62.9°49.2°
05/04 - 04:15 PM62.8°48.9°
05/04 - 04:00 PM62.7°48.6°
05/04 - 03:45 PM63.0°49.2°
05/04 - 03:30 PM62.6°49.5°
05/04 - 03:15 PM62.5°49.8°
05/04 - 03:00 PM62.2°50.4°
05/04 - 02:45 PM61.6°50.7°
05/04 - 02:30 PM61.4°50.8°
05/04 - 02:15 PM61.7°51.1°
05/04 - 02:00 PM61.4°50.2°
05/04 - 01:45 PM60.6°50.2°
05/04 - 01:30 PM60.3°51.4°
05/04 - 01:15 PM59.8°51.1°
05/04 - 01:00 PM59.7°51.7°
05/04 - 12:45 PM59.4°51.5°
05/04 - 12:30 PM59.3°51.7°
05/04 - 12:15 PM59.0°51.9°
05/04 - 12:00 PM58.5°52.2°
05/04 - 11:45 AM57.8°51.8°
05/04 - 11:30 AM57.7°52.4°
05/04 - 11:15 AM57.6°52.5°
05/04 - 11:00 AM57.4°52.4°
05/04 - 10:45 AM57.3°52.7°
05/04 - 10:30 AM57.1°53.2°
05/04 - 10:15 AM57.0°54.1°
05/04 - 10:00 AM56.5°54.0°
05/04 - 09:45 AM55.9°54.3°
05/04 - 09:30 AM55.6°55.1°
05/04 - 09:15 AM55.4°55.3°
05/04 - 09:00 AM54.9°54.9°
05/04 - 08:45 AM54.5°54.5°
05/04 - 08:30 AM54.2°54.2°
05/04 - 08:15 AM54.3°54.3°
05/04 - 08:00 AM53.9°53.9°
05/04 - 07:45 AM53.3°53.3°
05/04 - 07:30 AM52.9°52.9°
05/04 - 07:15 AM53.0°53.0°
05/04 - 07:00 AM53.0°53.0°
05/04 - 06:45 AM53.0°53.0°
05/04 - 06:30 AM52.9°52.7°
05/04 - 06:15 AM53.4°52.3°
05/04 - 06:00 AM53.7°51.2°
05/04 - 05:45 AM54.6°50.3°
05/04 - 05:30 AM55.3°49.5°
05/04 - 05:15 AM55.5°48.9°
05/04 - 05:00 AM55.8°47.9°
05/04 - 04:45 AM56.2°47.4°
05/04 - 04:30 AM56.2°47.2°
05/04 - 04:15 AM56.3°47.1°
05/04 - 04:00 AM56.4°46.9°
05/04 - 03:45 AM56.6°46.7°
05/04 - 03:30 AM56.8°46.6°
05/04 - 03:15 AM57.0°46.5°
05/04 - 03:00 AM57.2°46.5°
05/04 - 02:45 AM57.3°46.5°
05/04 - 02:30 AM57.5°46.6°
05/04 - 02:15 AM57.5°46.9°
05/04 - 02:00 AM57.6°46.8°
05/04 - 01:45 AM57.7°46.8°
05/04 - 01:30 AM57.8°46.6°
05/04 - 01:15 AM57.8°46.4°
05/04 - 01:00 AM57.8°46.1°
05/04 - 12:45 AM57.9°46.0°
05/04 - 12:30 AM57.9°46.0°
05/04 - 12:15 AM57.8°46.1°
05/04 - 12:00 AM57.6°45.9°
05/03 - 11:45 PM57.4°45.5°
05/03 - 11:30 PM57.5°44.9°
05/03 - 11:15 PM58.5°44.4°